contact:dominique.lefevre@mio.osupytheas.fr, maurice.libes@osupytheas.fr, didier.mallarino@osupytheas.fr
Project:EMSO http://www.emso-fr.org/EMSO-France
Depth: 2436.0 m
Title:EMSO Ligure Ouest : Data MII capteur CSTAR
DateTime,Latitude,Longitude,Instrument_Serial,Reference_Counts,Signal_Counts,Corrected_Signal_raw_counts,Calculated_Beam_c_inverse_meters,Internal_thermistor_counts
DateTime,Latitude,Longitude,Instrument_Serial,Reference_Counts,Signal_Counts,Corrected_Signal_raw_counts,Calculated_Beam_c_inverse_meters,Internal_thermistor_counts
2019-06-10T00:02:35,42.805,6.029,CST-1368DR,9123,12765,15541,0.019,551
2019-06-10T00:05:37,42.805,6.029,CST-1368DR,9123,12766,15542,0.019,551
2019-06-10T00:08:38,42.805,6.029,CST-1368DR,9123,12759,15533,0.021,551
2019-06-10T00:11:39,42.805,6.029,CST-1368DR,9123,12765,15541,0.019,551
2019-06-10T00:14:41,42.805,6.029,CST-1368DR,9123,12765,15541,0.019,551
2019-06-10T00:17:42,42.805,6.029,CST-1368DR,9123,12766,15541,0.019,551
2019-06-10T00:20:44,42.805,6.029,CST-1368DR,9123,12766,15541,0.019,551
2019-06-10T00:23:45,42.805,6.029,CST-1368DR,9123,12767,15542,0.019,551
2019-06-10T00:26:46,42.805,6.029,CST-1368DR,9123,12763,15538,0.020,551
2019-06-10T00:29:48,42.805,6.029,CST-1368DR,9123,12766,15541,0.019,551
2019-06-10T00:32:49,42.805,6.029,CST-1368DR,9123,12765,15540,0.020,551
2019-06-10T00:35:51,42.805,6.029,CST-1368DR,9123,12766,15541,0.019,551
2019-06-10T00:38:52,42.805,6.029,CST-1368DR,9123,12766,15541,0.019,551
2019-06-10T00:41:53,42.805,6.029,CST-1368DR,9123,12765,15541,0.019,551
2019-06-10T00:44:55,42.805,6.029,CST-1368DR,9123,12764,15539,0.020,551
2019-06-10T00:47:56,42.805,6.029,CST-1368DR,9123,12766,15542,0.019,551
2019-06-10T00:50:58,42.805,6.029,CST-1368DR,9123,12764,15539,0.020,551
2019-06-10T00:53:59,42.805,6.029,CST-1368DR,9123,12766,15542,0.019,551
2019-06-10T00:57:01,42.805,6.029,CST-1368DR,9123,12763,15538,0.020,551
2019-06-10T01:00:02,42.805,6.029,CST-1368DR,9122,12765,15542,0.019,551
2019-06-10T01:03:03,42.805,6.029,CST-1368DR,9123,12767,15542,0.019,551
2019-06-10T01:06:05,42.805,6.029,CST-1368DR,9122,12766,15543,0.019,551
2019-06-10T01:09:06,42.805,6.029,CST-1368DR,9122,12766,15543,0.019,551
2019-06-10T01:12:08,42.805,6.029,CST-1368DR,9122,12766,15543,0.019,551
2019-06-10T01:15:09,42.805,6.029,CST-1368DR,9122,12766,15544,0.018,551
2019-06-10T01:18:10,42.805,6.029,CST-1368DR,9122,12765,15542,0.019,551
2019-06-10T01:21:12,42.805,6.029,CST-1368DR,9122,12764,15541,0.019,551
2019-06-10T01:24:13,42.805,6.029,CST-1368DR,9122,12767,15544,0.018,551
2019-06-10T01:27:15,42.805,6.029,CST-1368DR,9122,12765,15542,0.019,551
2019-06-10T01:30:16,42.805,6.029,CST-1368DR,9122,12766,15544,0.018,551
2019-06-10T01:33:17,42.805,6.029,CST-1368DR,9122,12766,15543,0.019,551
2019-06-10T01:36:19,42.805,6.029,CST-1368DR,9122,12765,15542,0.019,551
2019-06-10T01:39:20,42.805,6.029,CST-1368DR,9122,12766,15543,0.019,551
2019-06-10T01:42:22,42.805,6.029,CST-1368DR,9122,12766,15543,0.019,551
2019-06-10T01:45:23,42.805,6.029,CST-1368DR,9122,12767,15544,0.018,551
2019-06-10T01:48:24,42.805,6.029,CST-1368DR,9122,12765,15542,0.019,549
2019-06-10T01:51:26,42.805,6.029,CST-1368DR,9122,12763,15540,0.020,550
2019-06-10T01:54:27,42.805,6.029,CST-1368DR,9122,12765,15542,0.019,551
2019-06-10T01:57:29,42.805,6.029,CST-1368DR,9122,12765,15542,0.019,551
2019-06-10T02:00:30,42.805,6.029,CST-1368DR,9122,12764,15541,0.019,551
2019-06-10T02:03:32,42.805,6.029,CST-1368DR,9122,12765,15542,0.019,551
2019-06-10T02:06:33,42.805,6.029,CST-1368DR,9122,12765,15542,0.019,551
2019-06-10T02:09:34,42.805,6.029,CST-1368DR,9122,12764,15541,0.019,551
2019-06-10T02:12:36,42.805,6.029,CST-1368DR,9122,12765,15542,0.019,551
2019-06-10T02:15:37,42.805,6.029,CST-1368DR,9122,12765,15542,0.019,551
2019-06-10T02:18:39,42.805,6.029,CST-1368DR,9122,12765,15542,0.019,551
2019-06-10T02:21:40,42.805,6.029,CST-1368DR,9122,12762,15538,0.020,551
2019-06-10T02:24:41,42.805,6.029,CST-1368DR,9122,12761,15537,0.020,551
2019-06-10T02:27:43,42.805,6.029,CST-1368DR,9122,12761,15537,0.020,551
2019-06-10T02:30:44,42.805,6.029,CST-1368DR,9122,12765,15542,0.019,551
2019-06-10T02:33:46,42.805,6.029,CST-1368DR,9122,12765,15542,0.019,551
2019-06-10T02:36:47,42.805,6.029,CST-1368DR,9121,12761,15538,0.020,551
2019-06-10T02:39:48,42.805,6.029,CST-1368DR,9121,12764,15542,0.019,551
2019-06-10T02:42:50,42.805,6.029,CST-1368DR,9121,12764,15543,0.019,551
2019-06-10T02:45:51,42.805,6.029,CST-1368DR,9121,12759,15537,0.020,551
2019-06-10T02:48:53,42.805,6.029,CST-1368DR,9121,12764,15543,0.019,551
2019-06-10T02:51:54,42.805,6.029,CST-1368DR,9121,12763,15542,0.019,551
2019-06-10T02:54:55,42.805,6.029,CST-1368DR,9121,12764,15542,0.019,551
2019-06-10T02:57:57,42.805,6.029,CST-1368DR,9121,12764,15542,0.019,551
2019-06-10T03:00:58,42.805,6.029,CST-1368DR,9121,12763,15541,0.019,551
2019-06-10T03:04:00,42.805,6.029,CST-1368DR,9121,12765,15543,0.019,551
2019-06-10T03:07:01,42.805,6.029,CST-1368DR,9121,12762,15540,0.020,551
2019-06-10T03:10:03,42.805,6.029,CST-1368DR,9121,12763,15542,0.019,551
2019-06-10T03:13:04,42.805,6.029,CST-1368DR,9121,12764,15543,0.019,551
2019-06-10T03:16:05,42.805,6.029,CST-1368DR,9121,12764,15542,0.019,551
2019-06-10T03:19:07,42.805,6.029,CST-1368DR,9121,12763,15541,0.019,551
2019-06-10T03:22:08,42.805,6.029,CST-1368DR,9121,12762,15540,0.020,551
2019-06-10T03:25:10,42.805,6.029,CST-1368DR,9121,12761,15538,0.020,551
2019-06-10T03:28:11,42.805,6.029,CST-1368DR,9121,12763,15541,0.019,551
2019-06-10T03:31:12,42.805,6.029,CST-1368DR,9121,12762,15540,0.020,551
2019-06-10T03:34:14,42.805,6.029,CST-1368DR,9121,12763,15541,0.019,551
2019-06-10T03:37:15,42.805,6.029,CST-1368DR,9121,12763,15541,0.019,551
2019-06-10T03:40:17,42.805,6.029,CST-1368DR,9121,12760,15538,0.020,551
2019-06-10T03:43:18,42.805,6.029,CST-1368DR,9121,12762,15540,0.020,550
2019-06-10T03:46:19,42.805,6.029,CST-1368DR,9121,12749,15524,0.024,551
2019-06-10T03:49:21,42.805,6.029,CST-1368DR,9121,12762,15540,0.020,551
2019-06-10T03:52:22,42.805,6.029,CST-1368DR,9121,12759,15537,0.020,551
2019-06-10T03:55:24,42.805,6.029,CST-1368DR,9121,12763,15541,0.019,551
2019-06-10T03:58:25,42.805,6.029,CST-1368DR,9121,12762,15540,0.020,551
2019-06-10T04:01:26,42.805,6.029,CST-1368DR,9121,12762,15540,0.020,551
2019-06-10T04:04:28,42.805,6.029,CST-1368DR,9121,12752,15528,0.023,551
2019-06-10T04:07:29,42.805,6.029,CST-1368DR,9120,12762,15541,0.019,551
2019-06-10T04:10:31,42.805,6.029,CST-1368DR,9121,12762,15540,0.020,551
2019-06-10T04:13:32,42.805,6.029,CST-1368DR,9121,12760,15538,0.020,551
2019-06-10T04:16:34,42.805,6.029,CST-1368DR,9121,12761,15539,0.020,550
2019-06-10T04:19:35,42.805,6.029,CST-1368DR,9121,12763,15541,0.019,551
2019-06-10T04:22:36,42.805,6.029,CST-1368DR,9121,12760,15537,0.020,551
2019-06-10T04:25:38,42.805,6.029,CST-1368DR,9120,12763,15542,0.019,551
2019-06-10T04:28:39,42.805,6.029,CST-1368DR,9120,12760,15539,0.020,551
2019-06-10T04:31:41,42.805,6.029,CST-1368DR,9120,12762,15542,0.019,551
2019-06-10T04:34:42,42.805,6.029,CST-1368DR,9120,12762,15541,0.019,551
2019-06-10T04:37:43,42.805,6.029,CST-1368DR,9120,12762,15541,0.019,551
2019-06-10T04:40:45,42.805,6.029,CST-1368DR,9120,12762,15541,0.019,551
2019-06-10T04:43:46,42.805,6.029,CST-1368DR,9120,12759,15538,0.020,551
2019-06-10T04:46:48,42.805,6.029,CST-1368DR,9120,12761,15540,0.020,551
2019-06-10T04:49:49,42.805,6.029,CST-1368DR,9120,12761,15540,0.020,551
2019-06-10T04:52:50,42.805,6.029,CST-1368DR,9120,12762,15541,0.019,551
2019-06-10T04:55:52,42.805,6.029,CST-1368DR,9120,12759,15538,0.020,551
2019-06-10T04:58:53,42.805,6.029,CST-1368DR,9120,12762,15541,0.019,550
2019-06-10T05:01:55,42.805,6.029,CST-1368DR,9120,12759,15538,0.020,551
2019-06-10T05:04:56,42.805,6.029,CST-1368DR,9120,12760,15539,0.020,551
2019-06-10T05:07:58,42.805,6.029,CST-1368DR,9120,12762,15541,0.019,551
2019-06-10T05:10:59,42.805,6.029,CST-1368DR,9120,12762,15542,0.019,551
2019-06-10T05:14:00,42.805,6.029,CST-1368DR,9120,12762,15541,0.019,551
2019-06-10T05:17:02,42.805,6.029,CST-1368DR,9120,12760,15539,0.020,551
2019-06-10T05:20:03,42.805,6.029,CST-1368DR,9120,12760,15539,0.020,551
2019-06-10T05:23:05,42.805,6.029,CST-1368DR,9120,12761,15540,0.020,551
2019-06-10T05:26:06,42.805,6.029,CST-1368DR,9120,12760,15539,0.020,551
2019-06-10T05:29:07,42.805,6.029,CST-1368DR,9120,12761,15540,0.020,551
2019-06-10T05:32:09,42.805,6.029,CST-1368DR,9120,12761,15540,0.020,551
2019-06-10T05:35:10,42.805,6.029,CST-1368DR,9119,12760,15540,0.020,551
2019-06-10T05:38:12,42.805,6.029,CST-1368DR,9119,12760,15541,0.019,551
2019-06-10T05:41:13,42.805,6.029,CST-1368DR,9119,12761,15542,0.019,551
2019-06-10T05:44:14,42.805,6.029,CST-1368DR,9119,12759,15539,0.020,551
2019-06-10T05:47:16,42.805,6.029,CST-1368DR,9119,12761,15541,0.019,551
2019-06-10T05:50:17,42.805,6.029,CST-1368DR,9119,12761,15541,0.019,551
2019-06-10T05:53:19,42.805,6.029,CST-1368DR,9119,12761,15541,0.019,551
2019-06-10T05:56:20,42.805,6.029,CST-1368DR,9119,12761,15542,0.019,551
2019-06-10T05:59:21,42.805,6.029,CST-1368DR,9119,12761,15541,0.019,551
2019-06-10T06:02:23,42.805,6.029,CST-1368DR,9119,12761,15542,0.019,551
2019-06-10T06:05:24,42.805,6.029,CST-1368DR,9119,12754,15533,0.021,551
2019-06-10T06:08:26,42.805,6.029,CST-1368DR,9119,12760,15540,0.020,551
2019-06-10T06:11:27,42.805,6.029,CST-1368DR,9119,12761,15541,0.019,551
2019-06-10T06:14:29,42.805,6.029,CST-1368DR,9119,12759,15540,0.020,551
2019-06-10T06:17:30,42.805,6.029,CST-1368DR,9119,12760,15540,0.020,551
2019-06-10T06:20:31,42.805,6.029,CST-1368DR,9119,12758,15538,0.020,550
2019-06-10T06:23:33,42.805,6.029,CST-1368DR,9119,12760,15540,0.020,551
2019-06-10T06:26:34,42.805,6.029,CST-1368DR,9119,12760,15540,0.020,550
2019-06-10T06:29:36,42.805,6.029,CST-1368DR,9119,12758,15539,0.020,551
2019-06-10T06:32:37,42.805,6.029,CST-1368DR,9119,12760,15541,0.019,551
2019-06-10T06:35:38,42.805,6.029,CST-1368DR,9119,12756,15536,0.021,551
2019-06-10T06:38:40,42.805,6.029,CST-1368DR,9119,12758,15538,0.020,551
2019-06-10T06:41:41,42.805,6.029,CST-1368DR,9119,12760,15540,0.020,551
2019-06-10T06:44:43,42.805,6.029,CST-1368DR,9119,12758,15538,0.020,551
2019-06-10T06:47:44,42.805,6.029,CST-1368DR,9119,12759,15539,0.020,551
2019-06-10T06:50:45,42.805,6.029,CST-1368DR,9119,12757,15537,0.020,551
2019-06-10T06:53:47,42.805,6.029,CST-1368DR,9119,12760,15541,0.019,551
2019-06-10T06:56:48,42.805,6.029,CST-1368DR,9119,12760,15540,0.020,551
2019-06-10T06:59:50,42.805,6.029,CST-1368DR,9119,12761,15542,0.019,551
2019-06-10T07:02:51,42.805,6.029,CST-1368DR,9119,12759,15539,0.020,551
2019-06-10T07:05:52,42.805,6.029,CST-1368DR,9119,12759,15540,0.020,551
2019-06-10T07:08:54,42.805,6.029,CST-1368DR,9119,12759,15539,0.020,551
2019-06-10T07:11:55,42.805,6.029,CST-1368DR,9119,12758,15539,0.020,551
2019-06-10T07:14:57,42.805,6.029,CST-1368DR,9119,12759,15540,0.020,551
2019-06-10T07:17:58,42.805,6.029,CST-1368DR,9119,12759,15539,0.020,551
2019-06-10T07:21:00,42.805,6.029,CST-1368DR,9119,12760,15540,0.020,551
2019-06-10T07:24:01,42.805,6.029,CST-1368DR,9119,12759,15540,0.020,551
2019-06-10T07:27:02,42.805,6.029,CST-1368DR,9119,12759,15539,0.020,551
2019-06-10T07:30:04,42.805,6.029,CST-1368DR,9119,12760,15540,0.020,551
2019-06-10T07:33:05,42.805,6.029,CST-1368DR,9118,12759,15540,0.020,551
2019-06-10T07:36:07,42.805,6.029,CST-1368DR,9118,12758,15540,0.020,550
2019-06-10T07:39:08,42.805,6.029,CST-1368DR,9118,12758,15540,0.020,550
2019-06-10T07:42:09,42.805,6.029,CST-1368DR,9118,12759,15541,0.019,551
2019-06-10T07:45:11,42.805,6.029,CST-1368DR,9118,12757,15539,0.020,551
2019-06-10T07:48:12,42.805,6.029,CST-1368DR,9118,12759,15541,0.019,551
2019-06-10T07:51:14,42.805,6.029,CST-1368DR,9118,12759,15540,0.020,551
2019-06-10T07:54:15,42.805,6.029,CST-1368DR,9118,12758,15540,0.020,551
2019-06-10T07:57:16,42.805,6.029,CST-1368DR,9118,12759,15541,0.019,551
2019-06-10T08:00:18,42.805,6.029,CST-1368DR,9118,12756,15537,0.020,551
2019-06-10T08:03:19,42.805,6.029,CST-1368DR,9118,12758,15540,0.020,551
2019-06-10T08:06:21,42.805,6.029,CST-1368DR,9118,12759,15540,0.020,551
2019-06-10T08:09:22,42.805,6.029,CST-1368DR,9118,12759,15541,0.019,551
2019-06-10T08:12:24,42.805,6.029,CST-1368DR,9118,12760,15542,0.019,551
2019-06-10T08:15:25,42.805,6.029,CST-1368DR,9118,12758,15540,0.020,551
2019-06-10T08:18:26,42.805,6.029,CST-1368DR,9118,12759,15541,0.019,551
2019-06-10T08:21:28,42.805,6.029,CST-1368DR,9118,12755,15536,0.021,551
2019-06-10T08:24:29,42.805,6.029,CST-1368DR,9118,12759,15541,0.019,551
2019-06-10T08:27:31,42.805,6.029,CST-1368DR,9118,12759,15540,0.020,551
2019-06-10T08:30:32,42.805,6.029,CST-1368DR,9118,12759,15541,0.019,551
2019-06-10T08:33:33,42.805,6.029,CST-1368DR,9118,12759,15540,0.020,551
2019-06-10T08:36:35,42.805,6.029,CST-1368DR,9118,12757,15538,0.020,551
2019-06-10T08:39:36,42.805,6.029,CST-1368DR,9118,12759,15541,0.019,551
2019-06-10T08:42:38,42.805,6.029,CST-1368DR,9118,12758,15540,0.020,551
2019-06-10T08:45:39,42.805,6.029,CST-1368DR,9118,12758,15540,0.020,551
2019-06-10T08:48:40,42.805,6.029,CST-1368DR,9118,12757,15538,0.020,551
2019-06-10T08:51:42,42.805,6.029,CST-1368DR,9118,12759,15540,0.020,551
2019-06-10T08:54:43,42.805,6.029,CST-1368DR,9118,12757,15539,0.020,551
2019-06-10T08:57:45,42.805,6.029,CST-1368DR,9118,12759,15541,0.019,551
2019-06-10T09:00:46,42.805,6.029,CST-1368DR,9118,12759,15541,0.019,551
2019-06-10T09:03:47,42.805,6.029,CST-1368DR,9118,12759,15540,0.020,551
2019-06-10T09:06:49,42.805,6.029,CST-1368DR,9118,12758,15540,0.020,551
2019-06-10T09:09:50,42.805,6.029,CST-1368DR,9118,12759,15540,0.020,551
2019-06-10T09:12:52,42.805,6.029,CST-1368DR,9118,12758,15540,0.020,550
2019-06-10T09:15:53,42.805,6.029,CST-1368DR,9118,12755,15536,0.021,551
2019-06-10T09:18:55,42.805,6.029,CST-1368DR,9118,12759,15541,0.019,551
2019-06-10T09:21:56,42.805,6.029,CST-1368DR,9117,12757,15540,0.020,551
2019-06-10T09:24:57,42.805,6.029,CST-1368DR,9117,12756,15539,0.020,551
2019-06-10T09:27:59,42.805,6.029,CST-1368DR,9117,12755,15538,0.020,550
2019-06-10T09:31:00,42.805,6.029,CST-1368DR,9117,12758,15541,0.019,551
2019-06-10T09:34:02,42.805,6.029,CST-1368DR,9117,12758,15541,0.019,550
2019-06-10T09:37:03,42.805,6.029,CST-1368DR,9117,12755,15538,0.020,551
2019-06-10T09:40:04,42.805,6.029,CST-1368DR,9117,12757,15541,0.019,551
2019-06-10T09:43:06,42.805,6.029,CST-1368DR,9117,12739,15519,0.025,551
2019-06-10T09:46:07,42.805,6.029,CST-1368DR,9117,12757,15541,0.019,551
2019-06-10T09:49:09,42.805,6.029,CST-1368DR,9117,12757,15540,0.020,551
2019-06-10T09:52:10,42.805,6.029,CST-1368DR,9117,12756,15539,0.020,551
2019-06-10T09:55:11,42.805,6.029,CST-1368DR,9117,12755,15537,0.020,551
2019-06-10T09:58:13,42.805,6.029,CST-1368DR,9117,12757,15540,0.020,551
2019-06-10T10:01:14,42.805,6.029,CST-1368DR,9117,12757,15540,0.020,551
2019-06-10T10:04:16,42.805,6.029,CST-1368DR,9117,12755,15537,0.020,551
2019-06-10T10:07:17,42.805,6.029,CST-1368DR,9117,12756,15539,0.020,551
2019-06-10T10:10:18,42.805,6.029,CST-1368DR,9117,12757,15541,0.019,551
2019-06-10T10:13:20,42.805,6.029,CST-1368DR,9117,12757,15540,0.020,551
2019-06-10T10:16:21,42.805,6.029,CST-1368DR,9117,12755,15538,0.020,551
2019-06-10T10:19:23,42.805,6.029,CST-1368DR,9117,12757,15540,0.020,551
2019-06-10T10:22:24,42.805,6.029,CST-1368DR,9117,12757,15540,0.020,550
2019-06-10T10:25:26,42.805,6.029,CST-1368DR,9117,12757,15541,0.019,551
2019-06-10T10:28:27,42.805,6.029,CST-1368DR,9117,12757,15540,0.020,551
2019-06-10T10:31:28,42.805,6.029,CST-1368DR,9117,12757,15540,0.020,551
2019-06-10T10:34:30,42.805,6.029,CST-1368DR,9117,12755,15538,0.020,551
2019-06-10T10:37:31,42.805,6.029,CST-1368DR,9117,12756,15539,0.020,550
2019-06-10T10:40:33,42.805,6.029,CST-1368DR,9117,12754,15537,0.020,551
2019-06-10T10:43:34,42.805,6.029,CST-1368DR,9117,12755,15538,0.020,551
2019-06-10T10:46:35,42.805,6.029,CST-1368DR,9117,12756,15539,0.020,551
2019-06-10T10:49:37,42.805,6.029,CST-1368DR,9117,12755,15538,0.020,550
2019-06-10T10:52:38,42.805,6.029,CST-1368DR,9116,12755,15539,0.020,551
2019-06-10T10:55:40,42.805,6.029,CST-1368DR,9117,12756,15539,0.020,551
2019-06-10T10:58:41,42.805,6.029,CST-1368DR,9117,12756,15539,0.020,551
2019-06-10T11:01:42,42.805,6.029,CST-1368DR,9116,12756,15540,0.020,550
2019-06-10T11:04:44,42.805,6.029,CST-1368DR,9117,12757,15540,0.020,551
2019-06-10T11:07:45,42.805,6.029,CST-1368DR,9116,12755,15539,0.020,551
2019-06-10T11:10:47,42.805,6.029,CST-1368DR,9116,12754,15538,0.020,550
2019-06-10T11:13:48,42.805,6.029,CST-1368DR,9116,12756,15540,0.020,551
2019-06-10T11:16:49,42.805,6.029,CST-1368DR,9116,12755,15539,0.020,551
2019-06-10T11:19:51,42.805,6.029,CST-1368DR,9116,12756,15541,0.019,551
2019-06-10T11:22:52,42.805,6.029,CST-1368DR,9116,12757,15542,0.019,550
2019-06-10T11:25:54,42.805,6.029,CST-1368DR,9116,12755,15539,0.020,551
2019-06-10T11:28:55,42.805,6.029,CST-1368DR,9116,12755,15540,0.020,550
2019-06-10T11:31:57,42.805,6.029,CST-1368DR,9116,12755,15539,0.020,551
2019-06-10T11:34:58,42.805,6.029,CST-1368DR,9116,12756,15540,0.020,551
2019-06-10T11:37:59,42.805,6.029,CST-1368DR,9116,12756,15540,0.020,551
2019-06-10T11:41:01,42.805,6.029,CST-1368DR,9116,12756,15540,0.020,550
2019-06-10T11:44:02,42.805,6.029,CST-1368DR,9116,12753,15537,0.020,551
2019-06-10T11:47:04,42.805,6.029,CST-1368DR,9116,12756,15541,0.019,551
2019-06-10T11:50:05,42.805,6.029,CST-1368DR,9116,12755,15539,0.020,551
2019-06-10T11:53:06,42.805,6.029,CST-1368DR,9116,12754,15538,0.020,550
2019-06-10T11:56:08,42.805,6.029,CST-1368DR,9116,12754,15538,0.020,551
2019-06-10T11:59:09,42.805,6.029,CST-1368DR,9116,12755,15539,0.020,551
2019-06-10T12:02:11,42.805,6.029,CST-1368DR,9116,12754,15538,0.020,551
2019-06-10T12:05:12,42.805,6.029,CST-1368DR,9116,12755,15539,0.020,551
2019-06-10T12:08:13,42.805,6.029,CST-1368DR,9116,12755,15540,0.020,551
2019-06-10T12:11:15,42.805,6.029,CST-1368DR,9116,12756,15540,0.020,551
2019-06-10T12:14:16,42.805,6.029,CST-1368DR,9116,12755,15539,0.020,551
2019-06-10T12:17:18,42.805,6.029,CST-1368DR,9116,12752,15536,0.021,551
2019-06-10T12:20:19,42.805,6.029,CST-1368DR,9116,12754,15538,0.020,551
2019-06-10T12:23:20,42.805,6.029,CST-1368DR,9116,12755,15539,0.020,550
2019-06-10T12:26:22,42.805,6.029,CST-1368DR,9116,12749,15532,0.022,551
2019-06-10T12:29:23,42.805,6.029,CST-1368DR,9115,12755,15540,0.020,551
2019-06-10T12:32:25,42.805,6.029,CST-1368DR,9116,12755,15539,0.020,551
2019-06-10T12:35:26,42.805,6.029,CST-1368DR,9116,12754,15538,0.020,551
2019-06-10T12:38:28,42.805,6.029,CST-1368DR,9115,12752,15537,0.020,551
2019-06-10T12:41:29,42.805,6.029,CST-1368DR,9116,12755,15539,0.020,551
2019-06-10T12:44:30,42.805,6.029,CST-1368DR,9116,12755,15539,0.020,551
2019-06-10T12:47:32,42.805,6.029,CST-1368DR,9115,12754,15540,0.020,551
2019-06-10T12:50:33,42.805,6.029,CST-1368DR,9115,12754,15540,0.020,551
2019-06-10T12:53:35,42.805,6.029,CST-1368DR,9115,12754,15540,0.020,551
2019-06-10T12:56:36,42.805,6.029,CST-1368DR,9115,12753,15538,0.020,551
2019-06-10T12:59:37,42.805,6.029,CST-1368DR,9115,12749,15534,0.021,551
2019-06-10T13:02:39,42.805,6.029,CST-1368DR,9115,12752,15538,0.020,551
2019-06-10T13:05:40,42.805,6.029,CST-1368DR,9115,12751,15536,0.021,551
2019-06-10T13:08:42,42.805,6.029,CST-1368DR,9115,12753,15538,0.020,551
2019-06-10T13:11:43,42.805,6.029,CST-1368DR,9115,12754,15539,0.020,551
2019-06-10T13:14:44,42.805,6.029,CST-1368DR,9115,12754,15540,0.020,551
2019-06-10T13:17:46,42.805,6.029,CST-1368DR,9115,12755,15541,0.019,551
2019-06-10T13:20:47,42.805,6.029,CST-1368DR,9115,12752,15537,0.020,551
2019-06-10T13:23:49,42.805,6.029,CST-1368DR,9115,12752,15538,0.020,550
2019-06-10T13:26:50,42.805,6.029,CST-1368DR,9115,12752,15538,0.020,550
2019-06-10T13:29:52,42.805,6.029,CST-1368DR,9115,12753,15538,0.020,551
2019-06-10T13:32:53,42.805,6.029,CST-1368DR,9115,12754,15540,0.020,551
2019-06-10T13:35:54,42.805,6.029,CST-1368DR,9115,12753,15538,0.020,551
2019-06-10T13:38:56,42.805,6.029,CST-1368DR,9115,12753,15538,0.020,551
2019-06-10T13:41:57,42.805,6.029,CST-1368DR,9115,12753,15539,0.020,551
2019-06-10T13:44:59,42.805,6.029,CST-1368DR,9115,12754,15540,0.020,551
2019-06-10T13:48:00,42.805,6.029,CST-1368DR,9115,12753,15538,0.020,551
2019-06-10T13:51:01,42.805,6.029,CST-1368DR,9115,12753,15538,0.020,551
2019-06-10T13:54:03,42.805,6.029,CST-1368DR,9115,12753,15538,0.020,551
2019-06-10T13:57:04,42.805,6.029,CST-1368DR,9115,12753,15538,0.020,551
2019-06-10T14:00:06,42.805,6.029,CST-1368DR,9115,12753,15538,0.020,551
2019-06-10T14:03:07,42.805,6.029,CST-1368DR,9115,12753,15538,0.020,551
2019-06-10T14:06:08,42.805,6.029,CST-1368DR,9115,12753,15538,0.020,551
2019-06-10T14:09:10,42.805,6.029,CST-1368DR,9115,12753,15539,0.020,551
2019-06-10T14:12:11,42.805,6.029,CST-1368DR,9115,12753,15538,0.020,551
2019-06-10T14:15:13,42.805,6.029,CST-1368DR,9115,12752,15538,0.020,551
2019-06-10T14:18:14,42.805,6.029,CST-1368DR,9115,12753,15538,0.020,551
2019-06-10T14:21:15,42.805,6.029,CST-1368DR,9114,12749,15535,0.021,551
2019-06-10T14:24:17,42.805,6.029,CST-1368DR,9114,12752,15539,0.020,551
2019-06-10T14:27:18,42.805,6.029,CST-1368DR,9114,12752,15538,0.020,550
2019-06-10T14:30:20,42.805,6.029,CST-1368DR,9114,12753,15540,0.020,551
2019-06-10T14:33:21,42.805,6.029,CST-1368DR,9114,12753,15540,0.020,551
2019-06-10T14:36:23,42.805,6.029,CST-1368DR,9114,12752,15539,0.020,551
2019-06-10T14:39:24,42.805,6.029,CST-1368DR,9114,12753,15540,0.020,551
2019-06-10T14:42:25,42.805,6.029,CST-1368DR,9114,12754,15541,0.019,551
2019-06-10T14:45:27,42.805,6.029,CST-1368DR,9114,12753,15540,0.020,550
2019-06-10T14:48:28,42.805,6.029,CST-1368DR,9114,12753,15539,0.020,551
2019-06-10T14:51:30,42.805,6.029,CST-1368DR,9114,12752,15539,0.020,551
2019-06-10T14:54:31,42.805,6.029,CST-1368DR,9114,12752,15539,0.020,551
2019-06-10T14:57:32,42.805,6.029,CST-1368DR,9114,12751,15538,0.020,550
2019-06-10T15:00:34,42.805,6.029,CST-1368DR,9114,12751,15538,0.020,551
2019-06-10T15:03:35,42.805,6.029,CST-1368DR,9114,12752,15538,0.020,551
2019-06-10T15:06:37,42.805,6.029,CST-1368DR,9114,12752,15539,0.020,551
2019-06-10T15:09:38,42.805,6.029,CST-1368DR,9114,12752,15538,0.020,551
2019-06-10T15:12:39,42.805,6.029,CST-1368DR,9114,12752,15539,0.020,551
2019-06-10T15:15:41,42.805,6.029,CST-1368DR,9114,12752,15538,0.020,551
2019-06-10T15:18:42,42.805,6.029,CST-1368DR,9114,12751,15538,0.020,551
2019-06-10T15:21:44,42.805,6.029,CST-1368DR,9114,12752,15538,0.020,551
2019-06-10T15:24:45,42.805,6.029,CST-1368DR,9114,12749,15535,0.021,551
2019-06-10T15:27:46,42.805,6.029,CST-1368DR,9114,12748,15534,0.021,551
2019-06-10T15:30:48,42.805,6.029,CST-1368DR,9114,12752,15538,0.020,551
2019-06-10T15:33:49,42.805,6.029,CST-1368DR,9114,12751,15537,0.020,551
2019-06-10T15:36:51,42.805,6.029,CST-1368DR,9114,12750,15536,0.021,551
2019-06-10T15:39:52,42.805,6.029,CST-1368DR,9114,12750,15536,0.021,551
2019-06-10T15:42:54,42.805,6.029,CST-1368DR,9114,12751,15538,0.020,551
2019-06-10T15:45:55,42.805,6.029,CST-1368DR,9113,12749,15537,0.020,551
2019-06-10T15:48:56,42.805,6.029,CST-1368DR,9113,12751,15539,0.020,551
2019-06-10T15:51:58,42.805,6.029,CST-1368DR,9113,12752,15540,0.020,551
2019-06-10T15:54:59,42.805,6.029,CST-1368DR,9113,12752,15541,0.019,551
2019-06-10T15:58:01,42.805,6.029,CST-1368DR,9114,12751,15538,0.020,551
2019-06-10T16:01:02,42.805,6.029,CST-1368DR,9113,12751,15539,0.020,551
2019-06-10T16:04:03,42.805,6.029,CST-1368DR,9113,12751,15539,0.020,551
2019-06-10T16:07:05,42.805,6.029,CST-1368DR,9113,12751,15539,0.020,550
2019-06-10T16:10:06,42.805,6.029,CST-1368DR,9113,12752,15540,0.020,551
2019-06-10T16:13:08,42.805,6.029,CST-1368DR,9113,12751,15539,0.020,551
2019-06-10T16:16:09,42.805,6.029,CST-1368DR,9113,12751,15539,0.020,551
2019-06-10T16:19:10,42.805,6.029,CST-1368DR,9113,12751,15539,0.020,551
2019-06-10T16:22:12,42.805,6.029,CST-1368DR,9113,12751,15539,0.020,551
2019-06-10T16:25:13,42.805,6.029,CST-1368DR,9113,12751,15539,0.020,551
2019-06-10T16:28:15,42.805,6.029,CST-1368DR,9113,12751,15539,0.020,551
2019-06-10T16:31:16,42.805,6.029,CST-1368DR,9113,12752,15540,0.020,551
2019-06-10T16:34:17,42.805,6.029,CST-1368DR,9113,12751,15539,0.020,551
2019-06-10T16:37:19,42.805,6.029,CST-1368DR,9113,12751,15539,0.020,551